Wetbulb
63.22 63.21 62.80 62.02 61.72 61.86 62.10 61.77 60.83 60.97 61.51 61.93 61.60 61.60 61.70 61.67 61.60 61.54 61.66 61.69 61.41 61.33 61.46 61.56 61.39 61.22 61.21 61.18 60.77 60.27 59.76 59.41 59.21 58.05 57.03 57.20 57.92 58.06 57.92 57.80 57.31 57.05 56.80 56.74 56.83 56.84 56.55 56.33 55.82 55.14 54.57 54.34 54.48 54.69 54.90 54.94 55.18 55.04 54.74 54.52 54.25 54.48 54.84 54.85 54.84 55.05 55.05 55.03 54.84
63.29 63.36 62.51 60.59 60.38 61.51 62.54 62.32 61.88 61.73 62.16 62.83 62.58 62.38 62.13 61.95 61.96 61.96 62.13 62.22 62.04 62.20 62.18 62.16 62.02 61.93 61.89 61.44 61.17 60.81 60.37 59.80 59.51 58.64 57.99 57.89 58.13 58.10 57.97 57.80 57.51 56.99 56.71 56.67 56.69 56.55 56.27 56.20 55.70 54.83 54.24 53.97 53.92 54.00 53.93 53.98 54.17 54.12 53.92 53.78 53.50 53.51 53.65 53.71 54.21 54.71 54.92 55.05 54.83
63.22 63.37 63.22 62.76 62.75 62.82 62.91 63.00 63.07 63.05 63.09 63.14 63.04 62.94 62.60 62.41 62.27 62.34 62.56 62.63 62.77 62.79 62.59 62.37 62.38 62.32 62.37 62.11 61.68 61.32 60.97 60.46 59.88 59.45 58.86 58.41 58.24 58.15 57.92 57.86 57.59 56.85 56.29 56.47 56.63 56.41 56.13 56.05 55.06 53.93 53.09 53.05 53.22 53.08 53.15 53.50 53.43 53.37 53.23 53.23 52.95 52.74 52.59 52.38 53.01 53.36 53.64 53.65 53.86
63.22 63.44 63.59 63.51 63.36 63.28 63.21 63.14 63.22 63.43 63.34 63.10 63.36 63.02 62.79 62.59 62.52 62.66 62.77 63.06 63.03 62.91 62.79 62.72 62.73 62.59 62.49 62.23 62.05 61.78 61.20 59.80 59.88 59.59 59.23 58.79 58.33 58.17 58.17 57.94 57.67 57.39 57.04 56.77 56.41 56.20 56.05 55.76 54.69 53.50 52.81 52.87 53.01 53.07 53.00 53.13 53.15 53.02 52.74 52.95 52.53 52.25 51.90 51.62 51.80 51.93 52.06 52.06 52.40
63.07 63.29 63.44 63.59 63.65 63.65 63.66 63.74 63.74 63.67 63.59 63.56 63.25 63.02 62.79 62.75 62.68 62.66 62.72 62.63 62.63 62.72 62.80 63.01 62.89 62.73 62.46 62.27 62.29 62.09 61.51 60.55 58.22 58.58 59.45 59.01 58.65 58.42 58.20 58.04 57.83 57.47 57.18 56.84 56.34 56.04 55.73 55.32 54.20 53.36 53.01 52.95 52.87 53.06 53.32 53.59 53.14 52.74 52.38 52.16 51.95 51.74 51.38 50.96 50.79 50.82 50.67 50.79 51.15
62.77 63.22 63.52 63.74 63.80 63.87 63.73 63.82 64.04 64.04 63.82 63.65 63.20 62.90 62.67 62.59 62.58 62.42 62.26 62.30 62.65 62.90 62.78 61.82 61.49 61.22 61.53 62.46 62.30 62.03 61.66 61.36 59.82 59.53 59.60 59.22 58.87 58.65 58.43 58.14 57.91 57.67 57.24 56.98 56.48 55.94 55.47 54.82 53.85 53.23 53.01 53.02 52.78 53.18 53.60 53.89 52.94 52.46 51.90 51.52 51.24 51.15 50.93 50.63 50.21 49.83 49.53 49.14 49.34
62.70 62.99 63.37 63.67 63.82 63.74 63.66 63.81 63.89 64.04 63.97 63.73 63.37 63.00 62.70 62.76 62.67 62.60 62.60 62.49 62.78 62.64 61.99 60.58 60.68 61.10 61.38 61.99 61.91 61.73 61.44 60.99 60.62 60.18 59.74 59.38 59.16 58.65 58.28 58.14 57.91 57.83 57.62 57.12 56.63 55.90 55.17 54.56 53.57 52.81 52.24 51.75 52.53 53.07 53.41 53.36 52.81 52.02 51.36 50.73 50.43 50.27 50.02 49.91 49.80 49.50 49.01 48.33 48.11
62.76 62.99 63.13 63.50 63.59 63.59 63.59 63.59 63.74 63.59 63.58 63.37 63.22 63.07 63.14 62.92 62.84 62.92 62.84 62.69 62.67 62.43 61.98 61.37 61.93 61.91 61.75 61.57 61.38 61.30 61.12 60.91 60.48 60.18 59.81 59.66 59.37 59.01 58.57 58.49 58.12 57.97 57.68 57.40 56.55 55.84 55.05 54.40 53.71 53.36 53.15 52.66 52.60 52.81 53.09 53.23 52.58 51.77 50.84 50.32 50.08 50.13 49.89 49.48 49.41 49.02 48.74 48.74 49.15
62.62 62.84 63.14 63.44 63.59 63.67 63.67 63.67 63.66 63.43 63.35 63.28 63.22 63.43 63.33 63.18 63.07 62.92 62.85 62.55 62.25 62.15 62.11 62.32 62.16 62.01 61.87 61.56 61.39 61.11 61.00 60.65 60.24 59.89 59.66 59.44 59.23 58.87 58.72 58.58 58.28 57.91 57.76 57.55 56.91 56.05 55.13 54.40 53.91 53.71 53.71 53.44 53.16 53.44 53.65 53.26 52.34 51.53 50.97 50.39 50.09 49.99 49.70 49.35 49.09 48.95 49.05 49.19 49.26
62.69 62.99 63.37 63.37 63.67 63.67 63.59 63.67 63.59 63.43 63.41 63.35 63.43 63.41 62.77 61.05 62.02 62.75 62.99 62.55 62.25 62.46 62.65 62.61 62.54 62.18 61.82 61.53 61.36 61.20 61.06 60.79 60.37 60.03 59.52 59.09 58.65 58.72 58.72 58.51 58.36 58.14 57.70 57.48 56.91 56.20 55.49 54.55 54.03 53.90 53.91 53.98 53.99 54.13 54.33 53.94 52.63 51.59 50.68 50.19 50.04 49.96 49.75 49.38 49.29 49.27 49.22 48.60 48.29
63.13 63.35 63.50 63.36 63.74 63.44 63.22 63.67 63.37 63.07 63.06 63.21 63.36 63.36 62.96 61.57 62.32 62.81 62.84 62.77 62.76 62.84 62.90 62.79 62.71 62.42 61.89 61.53 61.46 61.22 61.15 61.08 60.73 60.23 59.65 59.15 58.72 58.72 58.87 58.58 58.43 58.07 57.63 57.35 56.84 56.20 55.41 54.68 54.38 54.09 53.94 54.07 54.33 54.73 54.84 54.89 53.71 52.38 51.25 50.48 50.69 50.47 50.12 49.80 49.73 49.61 49.37 48.94 48.83
63.34 63.56 63.78 63.86 63.87 63.73 63.44 63.52 63.22 63.00 62.92 63.14 62.99 63.22 63.44 63.44 63.36 62.91 62.77 62.92 63.07 63.07 63.13 63.27 63.04 62.65 62.27 61.82 61.61 61.33 61.03 61.31 61.09 60.59 60.09 59.65 59.45 59.30 59.08 58.87 58.58 58.29 57.85 57.42 56.98 56.33 55.54 55.16 54.75 54.47 54.43 54.39 54.64 54.98 55.32 55.42 54.18 52.67 51.40 50.72 50.62 50.30 49.99 49.82 50.16 50.26 50.33 50.52 50.55
63.49 63.62 63.75 63.83 64.00 63.87 63.59 63.44 63.29 63.21 63.14 62.99 62.99 63.06 63.13 63.37 63.07 62.92 62.77 63.07 62.84 62.92 63.05 63.27 63.05 62.89 62.57 62.26 62.05 61.77 61.71 61.41 61.33 60.81 60.38 59.95 59.74 59.52 59.22 59.07 58.77 58.47 58.04 57.75 57.30 56.81 56.10 55.65 55.24 54.89 54.63 54.74 54.90 55.01 55.07 54.77 53.52 51.98 50.80 50.22 50.24 50.07 50.13 50.88 51.22 51.39 51.39 51.45 51.73
63.49 63.71 63.68 63.99 64.00 63.87 63.58 63.36 63.21 63.13 63.06 63.06 63.13 63.12 63.19 63.43 62.92 62.62 62.70 63.07 62.85 63.07 63.20 63.27 62.90 62.68 62.51 62.80 62.51 62.15 61.94 61.72 61.49 61.18 60.82 60.32 60.18 59.89 59.58 59.34 59.23 58.77 58.39 58.04 57.80 57.19 56.72 56.00 55.38 55.00 54.88 54.77 54.83 54.61 54.35 54.11 53.04 52.07 51.32 50.93 50.85 51.08 51.40 52.14 52.45 52.43 52.48 52.77 52.81
63.50 63.64 63.78 63.93 63.93 63.71 63.49 63.42 63.20 63.12 63.13 63.21 63.20 63.27 63.25 63.32 62.83 62.47 62.77 63.22 63.14 63.14 63.21 63.19 62.89 62.68 62.61 62.90 62.83 62.69 62.32 61.95 61.56 61.33 60.97 60.61 60.55 60.33 59.94 59.54 59.35 59.02 58.70 58.34 57.81 57.41 56.74 56.25 55.28 54.83 54.47 54.32 54.40 54.39 54.35 54.35 53.79 53.25 52.86 52.61 52.51 52.56 52.77 52.93 53.36 53.72 54.08 54.45 53.95
63.57 63.56 63.63 63.78 63.71 63.63 63.56 63.40 63.25 63.27 63.27 63.35 63.49 63.40 63.32 63.37 63.16 62.91 62.70 63.07 63.22 63.29 63.20 63.19 63.02 63.18 62.98 62.47 62.54 62.62 62.40 62.03 61.65 61.27 61.06 60.99 60.70 60.55 60.30 59.88 59.50 59.12 58.82 58.32 57.76 57.30 56.70 56.15 55.41 54.85 54.58 54.62 54.82 55.03 55.11 55.02 54.65 54.34 54.24 54.14 54.00 53.95 53.76 53.67 54.04 54.52 55.02 55.06 53.94
63.41 63.56 63.55 63.46 63.47 63.56 63.49 63.40 63.32 63.24 63.40 63.45 63.60 63.61 63.53 63.53 63.55 62.91 62.33 62.40 63.07 63.20 63.19 63.11 63.10 63.17 63.04 62.31 62.32 62.32 62.32 62.03 61.66 61.36 61.07 60.99 60.99 60.70 60.40 60.12 59.71 59.25 58.90 58.42 57.82 57.29 56.75 56.10 55.62 55.40 55.36 55.51 55.71 55.85 55.90 55.68 55.24 54.94 54.81 54.81 54.83 54.75 54.48 53.87 54.27 54.90 55.14 54.66 53.39
63.40 63.47 63.47 63.47 63.32 63.40 63.41 63.49 63.47 63.53 63.58 63.65 63.73 63.74 63.84 63.78 63.71 63.28 62.77 62.47 63.07 63.21 63.05 63.12 63.10 63.09 63.02 62.87 62.67 62.08 61.87 61.87 61.65 61.43 61.29 61.20 61.12 60.90 60.70 60.53 60.07 59.53 59.05 58.46 58.02 57.48 57.03 56.53 56.25 56.06 56.14 56.38 56.47 56.37 56.25 55.93 55.45 55.28 55.10 55.13 55.21 55.13 54.89 54.42 54.85 55.14 55.07 53.98 52.59
63.33 63.32 63.32 63.32 63.32 63.33 63.34 63.12 63.41 63.61 63.73 63.86 63.72 63.80 63.89 63.93 63.87 63.72 63.57 63.36 63.07 63.14 63.22 63.14 63.19 63.02 62.86 62.86 62.64 61.85 61.13 61.63 61.63 61.49 61.49 61.33 61.31 61.15 60.96 60.92 60.42 59.86 59.28 58.68 58.25 57.99 57.69 57.29 57.03 56.90 56.82 56.62 56.54 56.42 56.16 55.99 55.74 55.53 55.46 55.29 55.32 55.24 55.28 55.16 55.48 55.51 55.06 53.85 52.73
63.24 63.24 63.31 63.31 63.40 63.34 63.27 63.12 63.41 63.61 63.89 63.80 63.87 63.86 63.80 63.90 63.86 63.79 63.72 63.64 63.37 63.44 63.52 63.29 63.05 62.88 62.87 62.79 62.63 62.20 61.69 61.47 61.69 61.61 61.46 61.38 61.22 61.15 61.01 60.91 60.69 60.22 59.60 59.02 58.65 58.47 58.26 57.85 57.59 57.43 57.10 56.70 56.58 56.47 56.41 56.25 56.12 55.95 55.67 55.48 55.32 55.41 55.70 55.91 56.12 56.13 55.75 54.92 53.69
63.16 63.31 63.29 63.53 63.39 63.33 63.34 63.57 63.71 63.93 63.83 63.96 63.87 63.79 63.72 63.82 63.93 63.87 63.72 63.65 63.67 63.67 63.66 63.29 63.13 62.82 62.73 62.65 62.42 62.25 61.94 61.38 61.58 61.58 61.43 61.15 61.08 61.00 61.01 60.83 60.62 60.26 59.80 59.27 58.94 58.52 58.24 57.73 57.58 57.62 57.47 57.37 57.11 56.90 56.78 56.53 56.30 56.02 55.75 55.62 55.54 55.71 56.00 56.43 56.53 56.49 56.08 55.32 53.91
63.11 63.32 63.46 63.61 63.53 63.55 63.56 63.64 63.71 63.94 64.02 63.93 63.83 63.89 63.89 63.83 63.77 63.79 63.89 63.89 63.74 63.67 63.44 63.22 63.07 62.85 62.62 62.54 62.37 62.20 62.04 61.55 61.84 61.78 61.57 61.51 61.29 61.21 61.07 61.05 60.84 60.47 60.09 59.62 59.10 58.46 58.04 57.85 57.88 58.11 58.16 58.21 58.07 57.59 57.21 56.66 56.53 56.08 55.77 55.54 55.52 55.75 56.01 56.31 56.26 55.99 55.56 54.54 53.11
63.21 63.42 63.62 63.61 63.71 63.20 62.76 63.35 63.65 63.72 63.81 63.80 63.78 63.62 63.78 63.71 63.85 63.79 63.81 63.74 63.14 62.92 62.92 62.82 62.88 62.89 62.84 62.77 62.54 62.46 62.15 61.94 62.02 61.95 61.95 62.02 61.73 61.50 61.42 61.25 60.97 60.54 60.03 59.42 58.97 58.67 58.30 58.02 57.94 58.17 58.49 58.83 58.63 58.08 57.51 56.84 56.25 55.90 55.55 55.32 55.16 55.38 55.81 56.34 56.24 55.58 54.65 53.58 52.28
63.22 63.44 63.44 63.57 63.65 63.57 63.27 63.43 63.43 63.44 63.44 63.50 63.57 63.50 63.36 63.44 63.58 63.65 63.50 63.22 63.07 62.92 62.70 62.84 62.90 63.02 63.15 63.11 62.84 62.62 62.32 62.02 61.87 61.87 61.88 62.10 62.02 61.80 61.43 61.13 60.55 60.03 59.77 59.54 58.28 57.52 57.05 57.04 57.83 58.22 58.38 58.81 58.61 58.17 57.55 56.73 55.88 55.20 54.83 54.76 55.02 55.54 56.05 56.58 56.42 55.31 54.02 52.68 52.00
63.14 63.07 63.14 63.44 63.58 63.52 63.28 63.19 63.12 63.06 63.13 63.27 63.41 63.41 63.34 63.20 63.13 62.98 63.05 63.05 62.98 62.91 62.84 62.84 62.77 63.04 63.19 63.09 62.86 62.67 62.47 62.10 61.80 61.72 61.73 61.81 62.02 61.94 61.48 60.62 60.10 59.82 59.37 58.01 52.79 50.19 50.07 51.90 55.16 57.36 58.55 58.86 58.42 57.71 56.92 56.06 55.61 55.29 55.15 55.22 55.78 56.19 56.31 56.28 55.65 54.49 53.43 52.30 51.66
62.88 62.80 62.89 63.05 63.12 63.12 62.98 62.90 62.82 62.73 62.88 63.02 63.10 63.15 63.12 63.12 62.86 62.88 62.89 62.73 62.74 62.76 62.62 62.62 62.47 61.80 61.30 62.41 62.64 62.57 62.36 62.01 61.80 61.66 61.65 61.65 61.80 61.73 61.27 60.32 60.03 60.10 59.07 55.45 49.31 46.37 46.00 47.15 49.27 52.61 56.20 59.26 57.90 56.89 55.99 55.74 56.36 56.61 56.73 56.82 56.83 56.68 56.26 55.33 54.37 53.46 52.68 51.80 51.38
62.49 62.57 62.56 62.64 62.65 62.66 62.59 62.73 62.80 62.80 62.79 62.85 62.92 62.75 62.72 62.79 62.76 62.56 62.20 61.93 62.15 62.46 62.61 62.40 62.40 60.82 59.72 61.78 62.15 62.14 62.27 62.12 62.10 61.92 61.88 61.64 61.56 61.51 61.06 60.54 60.52 60.49 58.70 52.84 47.35 44.88 44.70 45.44 46.00 47.85 51.69 58.08 56.91 56.20 56.26 57.18 57.30 57.23 57.09 57.13 56.77 56.29 55.60 54.55 53.86 52.97 51.97 51.13 50.94
62.11 62.18 62.42 62.35 62.35 62.35 62.49 62.65 62.65 62.56 62.62 62.68 62.68 62.76 62.78 62.79 62.47 62.04 61.62 61.06 61.43 61.80 61.95 62.10 61.88 61.33 60.98 61.60 61.78 62.09 62.16 62.27 62.15 62.17 62.07 61.73 61.65 61.50 61.36 60.99 61.29 60.12 56.49 49.56 45.78 44.44 44.48 44.92 44.96 45.57 47.68 52.43 56.16 57.29 57.19 57.57 57.55 57.71 57.79 57.64 56.81 56.05 55.16 54.17 53.23 52.37 51.56 51.09 50.73
62.18 62.11 62.13 62.00 62.06 62.20 62.27 62.35 62.34 62.56 62.54 62.71 62.71 62.75 62.47 62.25 61.80 61.50 61.07 60.62 60.47 60.61 60.73 60.98 60.76 61.00 61.37 61.41 61.85 62.17 62.47 62.47 62.50 62.45 62.17 62.01 61.65 61.58 61.58 61.51 61.34 58.73 53.19 45.09 44.35 44.22 44.35 44.69 44.69 44.64 45.34 47.92 53.99 56.49 56.90 57.05 57.69 58.12 58.15 57.62 56.70 55.58 54.55 53.56 52.89 52.33 51.78 51.23 50.95
62.06 62.01 61.89 61.84 61.84 61.89 61.96 62.25 62.30 62.47 62.58 62.69 62.55 62.25 61.81 61.44 61.29 60.84 60.59 60.22 60.07 60.09 60.07 60.40 60.64 60.76 61.02 61.58 62.07 62.31 62.61 62.76 62.82 62.79 62.48 62.00 61.71 61.50 61.13 60.67 61.72 59.38 52.66 42.27 43.47 44.09 44.30 44.56 44.77 44.77 44.89 45.55 51.03 54.83 56.81 57.05 57.42 57.47 57.05 56.58 55.95 55.13 54.16 53.34 53.22 52.83 52.48 52.15 51.57
61.93 61.95 61.75 61.79 61.82 61.82 61.87 62.22 62.37 62.54 62.67 62.62 62.17 61.73 61.44 60.99 60.91 60.74 60.49 60.33 60.37 60.16 60.01 60.71 60.91 60.97 61.25 61.99 62.61 62.88 62.91 63.07 63.06 62.97 62.71 62.32 60.97 60.69 61.09 61.54 62.02 59.62 53.08 40.94 43.11 43.95 44.38 44.86 45.17 45.07 44.66 43.74 48.99 53.59 56.70 57.37 57.48 57.32 56.81 56.20 55.25 54.32 53.74 53.48 53.57 53.55 53.33 53.19 52.54
62.15 62.01 61.98 61.71 61.68 61.77 62.08 62.29 62.46 62.49 62.68 62.84 62.18 61.66 61.07 60.84 60.75 60.90 60.95 60.67 60.64 60.56 60.67 61.04 61.13 61.02 61.31 62.23 62.92 63.41 63.47 63.43 63.36 63.13 62.93 62.57 62.22 62.02 61.73 61.44 61.78 59.75 53.48 40.87 42.92 43.94 44.55 45.21 45.43 45.16 44.57 43.39 47.74 52.73 56.58 57.36 57.23 56.96 56.63 55.96 54.93 54.27 53.79 53.70 53.69 53.73 53.64 53.55 52.86
62.22 62.01 61.98 61.87 61.67 61.86 62.02 62.27 62.37 62.58 62.68 62.62 62.32 61.80 61.21 60.92 61.02 61.31 61.33 61.02 61.07 61.27 61.41 61.42 61.29 61.36 61.39 61.65 62.60 63.36 63.64 63.55 63.30 62.54 62.03 62.05 62.50 62.44 62.05 61.42 61.90 58.86 52.12 41.10 42.82 43.89 44.68 45.43 45.56 45.21 44.44 43.08 47.86 52.54 55.78 56.22 56.58 56.57 56.37 55.75 55.08 54.93 54.85 54.92 54.44 54.14 53.91 53.48 53.13
62.14 62.00 61.94 61.91 61.80 61.98 62.14 62.31 62.41 62.49 62.61 62.39 62.25 61.95 61.58 60.98 61.10 61.16 61.13 60.88 61.27 61.66 61.88 61.87 61.86 61.96 62.17 62.66 63.32 63.15 62.67 62.00 62.76 63.12 63.09 62.86 62.60 62.13 61.60 61.57 61.88 57.14 49.13 41.71 42.82 43.75 44.68 45.43 45.30 45.03 44.31 42.68 48.13 52.77 55.68 56.33 56.32 56.19 55.89 55.24 55.10 55.37 55.62 55.68 55.27 54.83 54.33 53.94 53.48
62.08 61.89 61.87 61.91 62.01 62.01 62.10 62.34 62.45 62.44 62.27 62.15 62.02 61.95 61.86 61.29 61.09 61.15 60.95 60.40 60.59 61.55 62.44 62.44 62.67 62.92 63.24 63.67 63.83 63.34 62.58 61.93 62.48 62.83 62.92 62.61 62.16 61.40 60.91 60.96 61.34 54.46 45.17 42.20 42.64 43.44 44.19 44.73 44.68 44.36 44.00 43.80 49.96 54.07 56.12 56.34 55.96 55.75 55.44 55.08 55.08 55.02 55.05 55.12 54.79 54.45 54.27 54.08 53.75
61.83 61.87 61.65 61.77 62.01 62.01 62.08 62.17 62.20 62.09 62.09 61.93 61.88 61.94 62.06 61.95 61.64 61.46 61.11 60.07 60.67 61.68 62.46 62.61 63.11 63.42 63.63 63.83 63.95 63.35 62.78 63.14 62.82 62.54 62.17 61.84 61.70 61.48 61.22 61.00 61.79 53.53 43.12 41.60 42.27 43.12 43.74 44.10 43.96 43.37 43.99 47.11 52.52 55.28 56.05 55.94 55.32 55.10 55.23 55.16 54.72 54.32 53.84 53.38 52.76 52.55 52.51 52.90 53.05
61.82 61.81 61.61 61.53 61.70 61.77 62.01 62.01 61.98 61.86 61.86 61.87 62.16 62.22 62.23 62.17 62.23 62.12 61.61 60.69 61.71 62.28 62.53 62.80 63.28 63.42 63.59 63.70 63.71 63.66 63.67 64.03 63.48 62.84 62.33 61.40 61.68 61.72 61.67 61.28 62.01 54.01 43.65 40.12 41.49 42.61 43.11 43.42 42.92 43.09 45.06 50.12 53.96 55.44 55.52 54.91 54.17 54.25 54.09 53.25 51.56 50.40 49.40 48.80 48.26 47.90 47.58 47.44 47.96
61.88 61.78 61.62 61.47 61.58 61.60 61.70 61.74 61.75 61.70 61.74 61.95 62.39 62.54 62.54 62.47 62.47 62.25 61.69 60.34 62.05 62.53 62.55 62.92 63.23 63.59 63.66 63.83 63.74 63.80 63.99 64.17 63.20 62.76 62.51 62.11 62.01 61.68 61.56 61.73 58.98 52.28 44.69 39.71 40.26 41.16 42.05 42.51 42.18 42.86 45.69 51.68 53.92 54.53 54.28 53.58 52.91 52.07 50.41 47.57 44.99 43.73 43.42 43.87 43.38 42.65 41.59 40.19 39.38
61.69 61.82 61.69 61.55 61.59 61.65 61.70 61.67 61.63 61.77 61.95 62.17 62.40 62.54 62.69 62.69 62.54 62.40 61.88 61.10 62.48 62.84 62.78 63.01 63.28 63.46 63.30 62.72 63.18 63.62 63.30 62.08 59.58 58.49 58.63 60.10 58.60 57.30 56.95 58.41 54.37 49.61 44.70 39.69 38.88 39.36 40.35 41.29 41.37 42.18 44.79 50.66 53.03 53.59 52.92 52.25 50.77 48.83 46.39 43.95 42.60 41.84 41.53 41.17 40.27 39.24 38.05 36.84 35.90
61.76 61.89 61.83 61.81 61.62 61.52 61.58 61.63 61.71 62.14 62.32 62.40 62.29 62.33 62.47 62.51 62.08 61.95 62.18 62.30 63.17 63.37 63.30 63.23 63.44 63.46 62.89 60.97 62.10 61.84 60.03 56.51 53.76 51.98 51.37 51.95 50.74 49.25 49.12 52.23 50.70 48.19 44.57 39.87 38.32 38.45 39.28 40.18 40.44 41.47 44.38 50.15 52.11 52.49 51.80 50.77 48.60 46.12 43.95 42.51 41.56 40.84 39.94 39.27 38.55 37.56 36.61 35.67 34.74
61.79 61.77 61.58 61.60 61.62 61.66 61.61 61.47 61.77 62.22 62.61 62.62 62.51 62.27 61.82 61.48 61.86 62.46 62.92 63.35 63.49 63.68 63.72 63.63 63.83 63.01 60.96 57.50 57.65 56.27 53.83 50.93 49.37 48.63 47.92 46.69 46.36 45.43 45.44 48.02 47.99 47.09 44.87 41.40 38.60 37.93 38.61 39.54 40.03 41.19 43.83 48.65 50.85 51.17 50.32 48.87 46.62 44.40 42.69 41.65 40.58 39.49 38.41 37.78 37.11 36.39 35.59 34.96 34.15
MSLP
1011.33 1011.49 1011.69 1011.85 1012.01 1012.05 1012.05 1012.13 1012.21 1012.33 1012.41 1012.57 1012.77 1012.93 1013.05 1013.21 1013.33 1013.49 1013.69 1013.89 1014.05 1014.21 1014.33 1014.45 1014.53 1014.69 1014.89 1015.09 1015.29 1015.49 1015.73 1015.93 1016.13 1016.29 1016.45 1016.57 1016.69 1016.85 1017.01 1017.17 1017.33 1017.49 1017.65 1017.77 1017.93 1018.05 1018.21 1018.29 1018.37 1018.49 1018.53 1018.65 1018.69 1018.77 1018.81 1018.89 1019.01 1019.09 1019.21 1019.21 1019.29 1019.37 1019.49 1019.57 1019.61 1019.65 1019.73 1019.77 1019.85
1011.21 1011.33 1011.53 1011.77 1011.93 1012.01 1012.05 1012.09 1012.17 1012.25 1012.37 1012.49 1012.57 1012.73 1012.89 1013.05 1013.17 1013.29 1013.45 1013.65 1013.77 1013.93 1014.05 1014.21 1014.25 1014.45 1014.65 1014.89 1015.05 1015.25 1015.49 1015.77 1015.93 1016.09 1016.29 1016.41 1016.53 1016.69 1016.85 1017.01 1017.17 1017.29 1017.45 1017.61 1017.77 1017.89 1018.01 1018.13 1018.25 1018.37 1018.41 1018.49 1018.61 1018.69 1018.73 1018.77 1018.89 1018.97 1019.05 1019.09 1019.21 1019.29 1019.37 1019.45 1019.49 1019.49 1019.57 1019.65 1019.69
1011.13 1011.21 1011.37 1011.61 1011.77 1011.93 1011.97 1012.01 1012.05 1012.17 1012.25 1012.37 1012.49 1012.57 1012.73 1012.89 1013.01 1013.13 1013.21 1013.33 1013.49 1013.65 1013.85 1013.97 1014.05 1014.21 1014.41 1014.65 1014.85 1015.05 1015.29 1015.49 1015.69 1015.93 1016.09 1016.21 1016.37 1016.49 1016.65 1016.77 1016.93 1017.09 1017.25 1017.41 1017.57 1017.69 1017.85 1017.97 1018.09 1018.21 1018.29 1018.37 1018.41 1018.49 1018.57 1018.65 1018.73 1018.85 1018.93 1018.97 1019.05 1019.17 1019.29 1019.33 1019.33 1019.41 1019.49 1019.53 1019.61
1011.01 1011.09 1011.21 1011.37 1011.57 1011.73 1011.81 1011.89 1011.93 1012.01 1012.13 1012.29 1012.37 1012.49 1012.61 1012.77 1012.89 1012.93 1013.01 1013.09 1013.29 1013.45 1013.65 1013.77 1013.89 1014.01 1014.17 1014.37 1014.61 1014.81 1015.01 1015.21 1015.45 1015.65 1015.85 1016.01 1016.17 1016.29 1016.41 1016.57 1016.77 1016.93 1017.05 1017.21 1017.37 1017.53 1017.65 1017.85 1017.97 1018.09 1018.17 1018.21 1018.21 1018.25 1018.33 1018.41 1018.53 1018.65 1018.77 1018.85 1018.93 1019.05 1019.13 1019.21 1019.25 1019.33 1019.41 1019.45 1019.49
1010.85 1010.93 1011.01 1011.17 1011.33 1011.49 1011.65 1011.73 1011.81 1011.89 1012.01 1012.13 1012.29 1012.41 1012.49 1012.61 1012.69 1012.81 1012.89 1012.97 1013.09 1013.21 1013.33 1013.53 1013.65 1013.77 1013.93 1014.13 1014.37 1014.61 1014.81 1015.01 1015.21 1015.41 1015.61 1015.77 1015.93 1016.09 1016.21 1016.37 1016.49 1016.65 1016.81 1017.05 1017.21 1017.37 1017.53 1017.73 1017.81 1017.93 1017.97 1018.01 1018.01 1018.01 1018.01 1018.17 1018.37 1018.49 1018.65 1018.73 1018.85 1018.93 1018.97 1019.05 1019.17 1019.25 1019.33 1019.37 1019.45
1010.65 1010.77 1010.85 1010.97 1011.17 1011.33 1011.49 1011.57 1011.65 1011.77 1011.85 1011.97 1012.13 1012.25 1012.37 1012.49 1012.61 1012.73 1012.81 1012.89 1012.93 1013.05 1013.21 1013.37 1013.53 1013.65 1013.77 1013.93 1014.17 1014.37 1014.61 1014.77 1015.01 1015.21 1015.37 1015.53 1015.73 1015.89 1016.05 1016.13 1016.25 1016.37 1016.53 1016.77 1016.97 1017.21 1017.41 1017.49 1017.61 1017.69 1017.77 1017.77 1017.77 1017.77 1017.77 1017.93 1018.09 1018.25 1018.41 1018.57 1018.65 1018.77 1018.89 1018.93 1019.09 1019.21 1019.33 1019.37 1019.45
1010.49 1010.61 1010.69 1010.77 1010.97 1011.17 1011.29 1011.41 1011.53 1011.65 1011.73 1011.85 1011.97 1012.09 1012.21 1012.33 1012.45 1012.57 1012.65 1012.73 1012.77 1012.93 1013.09 1013.25 1013.37 1013.49 1013.65 1013.77 1013.93 1014.17 1014.37 1014.61 1014.77 1014.97 1015.13 1015.29 1015.49 1015.65 1015.77 1015.89 1016.01 1016.17 1016.33 1016.49 1016.73 1016.93 1017.17 1017.29 1017.37 1017.41 1017.49 1017.53 1017.53 1017.53 1017.61 1017.77 1017.93 1018.05 1018.17 1018.33 1018.45 1018.65 1018.77 1018.85 1018.97 1019.09 1019.21 1019.33 1019.49
1010.25 1010.37 1010.49 1010.61 1010.77 1010.93 1011.09 1011.25 1011.41 1011.53 1011.65 1011.73 1011.81 1011.93 1012.05 1012.17 1012.25 1012.37 1012.53 1012.65 1012.73 1012.81 1012.93 1013.09 1013.21 1013.33 1013.45 1013.57 1013.73 1013.93 1014.13 1014.37 1014.53 1014.77 1014.93 1015.05 1015.21 1015.33 1015.49 1015.61 1015.73 1015.85 1016.01 1016.17 1016.41 1016.65 1016.85 1017.01 1017.09 1017.09 1017.13 1017.21 1017.25 1017.29 1017.37 1017.53 1017.65 1017.81 1017.93 1018.05 1018.21 1018.37 1018.53 1018.61 1018.73 1018.93 1019.05 1019.25 1019.45
1010.05 1010.21 1010.29 1010.41 1010.57 1010.73 1010.89 1011.05 1011.21 1011.37 1011.49 1011.57 1011.61 1011.73 1011.89 1012.05 1012.13 1012.25 1012.41 1012.53 1012.65 1012.65 1012.77 1012.85 1012.97 1013.13 1013.29 1013.37 1013.49 1013.65 1013.81 1014.05 1014.25 1014.45 1014.65 1014.77 1014.93 1015.05 1015.17 1015.29 1015.45 1015.53 1015.65 1015.81 1016.01 1016.25 1016.49 1016.65 1016.77 1016.77 1016.77 1016.85 1016.89 1016.93 1017.05 1017.25 1017.41 1017.53 1017.65 1017.77 1017.93 1018.05 1018.21 1018.37 1018.49 1018.61 1018.77 1018.97 1019.17
1009.85 1009.97 1010.13 1010.25 1010.37 1010.49 1010.69 1010.85 1011.01 1011.17 1011.33 1011.41 1011.49 1011.57 1011.77 1011.93 1012.05 1012.13 1012.21 1012.29 1012.37 1012.49 1012.57 1012.65 1012.77 1012.93 1013.09 1013.21 1013.33 1013.41 1013.53 1013.69 1013.89 1014.09 1014.33 1014.49 1014.61 1014.73 1014.85 1014.93 1015.09 1015.21 1015.33 1015.49 1015.65 1015.89 1016.09 1016.25 1016.37 1016.41 1016.45 1016.49 1016.53 1016.61 1016.77 1016.97 1017.13 1017.25 1017.33 1017.49 1017.61 1017.73 1017.89 1018.01 1018.13 1018.25 1018.37 1018.53 1018.69
1009.53 1009.65 1009.81 1009.97 1010.13 1010.29 1010.45 1010.65 1010.77 1010.93 1011.09 1011.21 1011.33 1011.41 1011.57 1011.77 1011.89 1011.97 1012.05 1012.05 1012.21 1012.33 1012.37 1012.41 1012.49 1012.65 1012.85 1012.93 1013.05 1013.17 1013.25 1013.37 1013.53 1013.73 1013.93 1014.13 1014.25 1014.37 1014.49 1014.61 1014.73 1014.85 1014.97 1015.13 1015.33 1015.57 1015.77 1015.89 1015.97 1016.05 1016.09 1016.21 1016.25 1016.37 1016.49 1016.65 1016.81 1016.93 1017.05 1017.21 1017.29 1017.37 1017.49 1017.61 1017.77 1017.97 1018.05 1018.05 1018.21
1009.29 1009.41 1009.49 1009.65 1009.85 1010.05 1010.21 1010.37 1010.53 1010.69 1010.81 1010.97 1011.05 1011.21 1011.33 1011.49 1011.61 1011.73 1011.85 1011.93 1012.05 1012.05 1012.09 1012.17 1012.25 1012.37 1012.49 1012.65 1012.77 1012.89 1013.01 1013.09 1013.21 1013.33 1013.53 1013.73 1013.89 1014.05 1014.17 1014.25 1014.37 1014.49 1014.65 1014.81 1015.01 1015.21 1015.37 1015.49 1015.57 1015.65 1015.77 1015.93 1016.05 1016.13 1016.21 1016.33 1016.49 1016.65 1016.77 1016.89 1016.97 1017.05 1017.05 1017.13 1017.37 1017.61 1017.65 1017.65 1017.77
1009.01 1009.13 1009.21 1009.37 1009.53 1009.77 1009.93 1010.09 1010.21 1010.37 1010.49 1010.65 1010.77 1010.89 1011.01 1011.13 1011.29 1011.45 1011.61 1011.73 1011.77 1011.81 1011.81 1011.93 1012.01 1012.09 1012.21 1012.29 1012.41 1012.53 1012.65 1012.77 1012.89 1013.05 1013.17 1013.33 1013.49 1013.65 1013.77 1013.93 1014.05 1014.21 1014.37 1014.49 1014.65 1014.81 1014.93 1015.05 1015.17 1015.29 1015.41 1015.53 1015.65 1015.77 1015.93 1016.05 1016.21 1016.33 1016.49 1016.61 1016.69 1016.73 1016.69 1016.69 1016.85 1017.01 1017.17 1017.29 1017.41
1008.77 1008.89 1008.97 1009.09 1009.21 1009.41 1009.65 1009.77 1009.93 1010.01 1010.13 1010.29 1010.41 1010.53 1010.65 1010.77 1010.93 1011.09 1011.25 1011.37 1011.49 1011.49 1011.53 1011.65 1011.69 1011.77 1011.85 1011.93 1012.05 1012.21 1012.37 1012.49 1012.61 1012.73 1012.81 1012.93 1013.13 1013.29 1013.45 1013.61 1013.77 1013.93 1014.05 1014.21 1014.33 1014.45 1014.57 1014.65 1014.77 1014.93 1015.05 1015.21 1015.33 1015.49 1015.65 1015.81 1015.97 1016.05 1016.13 1016.21 1016.33 1016.37 1016.41 1016.45 1016.49 1016.65 1016.85 1017.05 1017.17
1008.49 1008.61 1008.69 1008.81 1008.93 1009.09 1009.25 1009.41 1009.53 1009.65 1009.77 1009.93 1010.05 1010.17 1010.33 1010.45 1010.53 1010.69 1010.85 1011.01 1011.09 1011.21 1011.25 1011.33 1011.41 1011.45 1011.53 1011.65 1011.77 1011.93 1012.05 1012.21 1012.33 1012.45 1012.53 1012.65 1012.77 1012.93 1013.13 1013.25 1013.41 1013.61 1013.77 1013.93 1014.05 1014.13 1014.21 1014.29 1014.45 1014.61 1014.77 1014.93 1015.01 1015.17 1015.33 1015.53 1015.65 1015.73 1015.77 1015.81 1015.89 1016.01 1016.09 1016.21 1016.29 1016.41 1016.57 1016.77 1016.97
1008.17 1008.29 1008.41 1008.53 1008.65 1008.77 1008.89 1009.05 1009.13 1009.25 1009.37 1009.53 1009.65 1009.81 1009.93 1010.05 1010.13 1010.29 1010.49 1010.65 1010.73 1010.81 1010.93 1011.01 1011.05 1011.13 1011.25 1011.41 1011.49 1011.65 1011.81 1011.93 1012.05 1012.17 1012.25 1012.33 1012.41 1012.57 1012.77 1012.93 1013.05 1013.21 1013.37 1013.57 1013.73 1013.85 1013.97 1014.05 1014.21 1014.37 1014.49 1014.61 1014.69 1014.81 1014.93 1015.13 1015.25 1015.37 1015.41 1015.49 1015.53 1015.65 1015.77 1015.93 1016.05 1016.17 1016.29 1016.49 1016.73
1007.81 1007.93 1008.09 1008.21 1008.33 1008.45 1008.53 1008.65 1008.77 1008.85 1009.01 1009.13 1009.25 1009.41 1009.53 1009.65 1009.77 1009.93 1010.05 1010.21 1010.33 1010.45 1010.53 1010.65 1010.73 1010.81 1010.93 1011.09 1011.21 1011.37 1011.53 1011.65 1011.77 1011.89 1011.93 1011.97 1012.05 1012.21 1012.37 1012.53 1012.69 1012.89 1013.05 1013.21 1013.37 1013.53 1013.73 1013.89 1014.05 1014.17 1014.25 1014.33 1014.41 1014.49 1014.61 1014.73 1014.89 1015.01 1015.09 1015.17 1015.29 1015.37 1015.49 1015.65 1015.77 1015.93 1016.05 1016.29 1016.49
1007.45 1007.57 1007.73 1007.85 1007.93 1008.05 1008.21 1008.29 1008.37 1008.49 1008.61 1008.73 1008.89 1009.01 1009.13 1009.25 1009.37 1009.53 1009.65 1009.81 1009.93 1010.05 1010.21 1010.29 1010.37 1010.49 1010.65 1010.77 1010.85 1011.01 1011.21 1011.33 1011.45 1011.49 1011.57 1011.61 1011.65 1011.77 1011.93 1012.13 1012.33 1012.53 1012.73 1012.93 1013.05 1013.17 1013.33 1013.57 1013.77 1013.93 1014.05 1014.09 1014.17 1014.21 1014.37 1014.45 1014.57 1014.73 1014.81 1014.93 1015.05 1015.17 1015.25 1015.41 1015.57 1015.69 1015.93 1016.21 1016.41
1007.09 1007.21 1007.33 1007.49 1007.57 1007.69 1007.81 1007.93 1008.05 1008.13 1008.21 1008.37 1008.49 1008.65 1008.77 1008.89 1009.05 1009.17 1009.29 1009.41 1009.57 1009.69 1009.85 1009.97 1010.05 1010.21 1010.29 1010.37 1010.49 1010.65 1010.77 1010.93 1011.01 1011.05 1011.17 1011.21 1011.33 1011.41 1011.53 1011.69 1011.93 1012.17 1012.37 1012.53 1012.65 1012.81 1012.97 1013.21 1013.41 1013.65 1013.77 1013.89 1013.93 1014.05 1014.13 1014.25 1014.37 1014.45 1014.57 1014.73 1014.85 1014.93 1015.05 1015.21 1015.37 1015.53 1015.73 1016.05 1016.33
1006.69 1006.81 1006.93 1007.05 1007.21 1007.33 1007.49 1007.61 1007.73 1007.81 1007.93 1008.01 1008.13 1008.25 1008.37 1008.49 1008.65 1008.81 1008.97 1009.05 1009.21 1009.37 1009.53 1009.65 1009.77 1009.85 1009.93 1010.01 1010.13 1010.25 1010.37 1010.45 1010.53 1010.65 1010.77 1010.85 1010.97 1011.05 1011.17 1011.29 1011.53 1011.77 1012.01 1012.21 1012.37 1012.49 1012.65 1012.81 1013.05 1013.25 1013.41 1013.57 1013.69 1013.77 1013.93 1014.05 1014.13 1014.21 1014.37 1014.53 1014.65 1014.77 1014.93 1015.05 1015.21 1015.33 1015.53 1015.77 1016.05
1006.33 1006.41 1006.53 1006.65 1006.81 1006.97 1007.13 1007.25 1007.37 1007.49 1007.61 1007.69 1007.81 1007.93 1008.05 1008.17 1008.33 1008.49 1008.65 1008.73 1008.85 1009.01 1009.21 1009.33 1009.45 1009.49 1009.61 1009.69 1009.77 1009.89 1009.93 1010.01 1010.13 1010.21 1010.37 1010.49 1010.65 1010.73 1010.81 1010.93 1011.17 1011.41 1011.65 1011.81 1011.97 1012.17 1012.33 1012.49 1012.65 1012.81 1013.01 1013.21 1013.33 1013.49 1013.65 1013.77 1013.89 1014.01 1014.17 1014.33 1014.49 1014.65 1014.77 1014.93 1015.05 1015.21 1015.33 1015.53 1015.77
1005.97 1006.05 1006.21 1006.37 1006.49 1006.65 1006.81 1006.97 1007.09 1007.25 1007.37 1007.45 1007.53 1007.65 1007.77 1007.89 1008.01 1008.13 1008.25 1008.41 1008.53 1008.73 1008.89 1009.01 1009.09 1009.21 1009.29 1009.33 1009.45 1009.53 1009.61 1009.65 1009.77 1009.93 1010.05 1010.21 1010.33 1010.41 1010.57 1010.73 1010.93 1011.05 1011.25 1011.49 1011.65 1011.85 1012.05 1012.21 1012.37 1012.49 1012.65 1012.81 1012.97 1013.17 1013.33 1013.49 1013.65 1013.77 1014.01 1014.21 1014.37 1014.49 1014.65 1014.77 1014.93 1015.09 1015.21 1015.33 1015.53
1005.69 1005.81 1005.93 1006.09 1006.25 1006.41 1006.57 1006.73 1006.89 1007.01 1007.13 1007.21 1007.33 1007.37 1007.49 1007.61 1007.69 1007.77 1007.93 1008.13 1008.33 1008.45 1008.57 1008.69 1008.81 1008.93 1009.05 1009.09 1009.17 1009.25 1009.33 1009.45 1009.57 1009.69 1009.81 1009.97 1010.09 1010.25 1010.37 1010.57 1010.73 1010.81 1010.93 1011.09 1011.33 1011.53 1011.77 1011.97 1012.13 1012.25 1012.37 1012.53 1012.65 1012.85 1013.05 1013.29 1013.49 1013.65 1013.85 1014.05 1014.21 1014.37 1014.49 1014.65 1014.85 1015.01 1015.13 1015.21 1015.41
1005.49 1005.65 1005.77 1005.93 1006.05 1006.21 1006.37 1006.49 1006.65 1006.77 1006.89 1006.97 1007.05 1007.17 1007.25 1007.37 1007.49 1007.57 1007.73 1007.89 1008.05 1008.17 1008.29 1008.41 1008.57 1008.69 1008.81 1008.93 1009.01 1009.09 1009.21 1009.33 1009.41 1009.49 1009.65 1009.77 1009.93 1010.05 1010.21 1010.37 1010.49 1010.61 1010.69 1010.89 1011.05 1011.29 1011.49 1011.73 1011.93 1012.05 1012.21 1012.29 1012.45 1012.65 1012.89 1013.17 1013.41 1013.65 1013.77 1013.93 1014.09 1014.29 1014.49 1014.69 1014.89 1014.97 1015.01 1015.05 1015.21
1005.29 1005.49 1005.65 1005.73 1005.89 1006.01 1006.13 1006.25 1006.37 1006.49 1006.57 1006.65 1006.77 1006.89 1007.01 1007.13 1007.25 1007.37 1007.49 1007.65 1007.77 1007.93 1008.05 1008.17 1008.29 1008.49 1008.65 1008.85 1008.93 1009.05 1009.13 1009.21 1009.25 1009.33 1009.41 1009.53 1009.65 1009.81 1009.97 1010.17 1010.25 1010.37 1010.53 1010.65 1010.93 1011.21 1011.37 1011.53 1011.69 1011.81 1011.93 1012.05 1012.29 1012.49 1012.77 1013.09 1013.33 1013.57 1013.77 1013.93 1014.17 1014.37 1014.57 1014.77 1014.85 1014.85 1014.85 1014.85 1014.97
1005.01 1005.21 1005.37 1005.49 1005.65 1005.77 1005.93 1006.01 1006.05 1006.17 1006.25 1006.37 1006.49 1006.61 1006.73 1006.85 1007.01 1007.17 1007.29 1007.37 1007.49 1007.65 1007.81 1008.01 1008.13 1008.25 1008.49 1008.65 1008.81 1008.93 1009.01 1009.05 1009.09 1009.13 1009.17 1009.25 1009.33 1009.53 1009.73 1009.89 1010.01 1010.17 1010.29 1010.49 1010.77 1011.05 1011.25 1011.49 1011.65 1011.73 1011.77 1011.93 1012.17 1012.45 1012.77 1013.05 1013.29 1013.57 1013.77 1013.97 1014.17 1014.33 1014.45 1014.53 1014.57 1014.57 1014.61 1014.65 1014.73
1004.73 1004.93 1005.05 1005.17 1005.33 1005.49 1005.57 1005.65 1005.77 1005.85 1005.93 1006.05 1006.21 1006.33 1006.41 1006.53 1006.73 1006.93 1007.05 1007.21 1007.33 1007.45 1007.65 1007.77 1007.93 1008.05 1008.29 1008.45 1008.57 1008.65 1008.77 1008.81 1008.89 1008.93 1008.93 1008.93 1009.01 1009.17 1009.33 1009.53 1009.65 1009.77 1009.93 1010.21 1010.53 1010.81 1011.09 1011.33 1011.61 1011.77 1011.89 1011.93 1012.13 1012.37 1012.65 1012.89 1013.21 1013.49 1013.73 1013.81 1013.93 1014.01 1014.09 1014.17 1014.17 1014.21 1014.33 1014.45 1014.57
1004.41 1004.57 1004.73 1004.89 1005.05 1005.13 1005.21 1005.33 1005.45 1005.57 1005.65 1005.77 1005.89 1005.97 1006.13 1006.33 1006.49 1006.65 1006.81 1007.01 1007.13 1007.29 1007.41 1007.57 1007.65 1007.85 1008.05 1008.21 1008.25 1008.29 1008.33 1008.41 1008.49 1008.61 1008.65 1008.69 1008.73 1008.81 1008.93 1009.09 1009.21 1009.37 1009.61 1009.93 1010.25 1010.61 1010.93 1011.21 1011.53 1011.77 1011.93 1012.01 1012.09 1012.25 1012.49 1012.69 1012.93 1013.09 1013.25 1013.33 1013.37 1013.49 1013.57 1013.69 1013.81 1014.01 1014.17 1014.29 1014.37
1004.05 1004.21 1004.37 1004.57 1004.65 1004.77 1004.89 1005.01 1005.09 1005.21 1005.29 1005.41 1005.53 1005.69 1005.93 1006.05 1006.21 1006.37 1006.61 1006.77 1007.01 1007.17 1007.25 1007.33 1007.45 1007.65 1007.77 1007.81 1007.81 1007.81 1007.85 1007.93 1008.05 1008.21 1008.37 1008.41 1008.49 1008.49 1008.57 1008.69 1008.81 1008.97 1009.25 1009.65 1010.01 1010.37 1010.69 1011.05 1011.33 1011.65 1011.81 1011.93 1012.01 1012.17 1012.37 1012.53 1012.65 1012.65 1012.69 1012.73 1012.81 1012.97 1013.21 1013.37 1013.57 1013.81 1014.01 1014.09 1014.13
1003.77 1003.93 1004.05 1004.21 1004.33 1004.41 1004.49 1004.57 1004.69 1004.77 1004.93 1005.05 1005.29 1005.49 1005.65 1005.85 1006.01 1006.17 1006.37 1006.61 1006.77 1006.89 1006.97 1007.05 1007.21 1007.33 1007.37 1007.33 1007.33 1007.33 1007.45 1007.49 1007.61 1007.77 1008.01 1008.13 1008.21 1008.21 1008.25 1008.33 1008.41 1008.61 1008.97 1009.49 1009.77 1010.05 1010.45 1010.81 1011.13 1011.45 1011.69 1011.85 1012.01 1012.13 1012.21 1012.33 1012.37 1012.41 1012.41 1012.41 1012.49 1012.73 1013.01 1013.21 1013.45 1013.65 1013.85 1013.93 1014.05
1003.37 1003.53 1003.69 1003.85 1003.93 1004.05 1004.09 1004.17 1004.25 1004.41 1004.61 1004.81 1005.05 1005.21 1005.37 1005.57 1005.73 1005.93 1006.09 1006.33 1006.45 1006.57 1006.69 1006.81 1006.97 1007.05 1007.01 1006.97 1006.97 1007.01 1007.05 1007.09 1007.21 1007.37 1007.57 1007.77 1007.89 1007.93 1008.01 1008.05 1008.09 1008.25 1008.69 1009.33 1009.57 1009.85 1010.21 1010.57 1010.93 1011.33 1011.65 1011.89 1012.05 1012.17 1012.21 1012.25 1012.33 1012.33 1012.33 1012.33 1012.45 1012.65 1012.93 1013.13 1013.37 1013.53 1013.65 1013.77 1013.93
1003.01 1003.21 1003.33 1003.49 1003.57 1003.65 1003.73 1003.77 1003.93 1004.09 1004.33 1004.49 1004.69 1004.89 1005.05 1005.21 1005.37 1005.57 1005.81 1006.05 1006.25 1006.41 1006.53 1006.69 1006.77 1006.81 1006.81 1006.77 1006.77 1006.73 1006.77 1006.85 1006.93 1007.05 1007.21 1007.37 1007.53 1007.65 1007.77 1007.89 1007.93 1008.01 1008.41 1009.21 1009.37 1009.65 1010.05 1010.41 1010.85 1011.25 1011.57 1011.81 1012.01 1012.05 1012.09 1012.21 1012.21 1012.13 1012.13 1012.17 1012.33 1012.49 1012.77 1013.01 1013.21 1013.33 1013.49 1013.61 1013.69
1002.65 1002.77 1002.93 1003.05 1003.13 1003.21 1003.33 1003.49 1003.65 1003.85 1004.05 1004.21 1004.41 1004.61 1004.77 1004.93 1005.09 1005.33 1005.61 1005.85 1006.05 1006.21 1006.37 1006.45 1006.49 1006.53 1006.57 1006.61 1006.65 1006.61 1006.61 1006.65 1006.69 1006.77 1006.97 1007.21 1007.33 1007.49 1007.61 1007.73 1007.77 1007.77 1008.21 1009.05 1009.21 1009.45 1009.81 1010.25 1010.69 1011.05 1011.33 1011.65 1011.77 1011.77 1011.81 1011.93 1011.89 1011.89 1011.93 1012.05 1012.17 1012.29 1012.45 1012.65 1012.85 1013.01 1013.13 1013.25 1013.33
1002.21 1002.37 1002.49 1002.65 1002.73 1002.81 1002.97 1003.13 1003.33 1003.57 1003.77 1004.01 1004.13 1004.33 1004.49 1004.69 1004.93 1005.17 1005.37 1005.57 1005.77 1005.93 1006.05 1006.13 1006.17 1006.21 1006.21 1006.29 1006.37 1006.49 1006.57 1006.65 1006.69 1006.77 1006.93 1007.05 1007.25 1007.49 1007.65 1007.73 1007.77 1007.85 1008.21 1008.77 1008.97 1009.21 1009.49 1009.93 1010.33 1010.69 1011.05 1011.33 1011.53 1011.53 1011.53 1011.65 1011.65 1011.69 1011.77 1011.89 1011.97 1012.05 1012.05 1012.13 1012.25 1012.41 1012.61 1012.73 1012.93
1001.85 1002.01 1002.17 1002.25 1002.37 1002.49 1002.65 1002.81 1003.05 1003.29 1003.49 1003.69 1003.89 1004.05 1004.21 1004.49 1004.69 1004.93 1005.05 1005.25 1005.49 1005.69 1005.77 1005.81 1005.85 1005.89 1005.93 1005.97 1006.13 1006.29 1006.49 1006.65 1006.77 1006.89 1006.97 1007.09 1007.25 1007.49 1007.65 1007.77 1007.77 1007.93 1008.25 1008.53 1008.77 1008.97 1009.21 1009.53 1009.93 1010.33 1010.77 1011.21 1011.33 1011.37 1011.33 1011.37 1011.49 1011.57 1011.65 1011.77 1011.85 1011.93 1011.93 1011.93 1011.97 1012.05 1012.21 1012.41 1012.61
1001.49 1001.65 1001.77 1001.93 1002.05 1002.21 1002.37 1002.57 1002.77 1002.97 1003.21 1003.41 1003.57 1003.73 1003.93 1004.21 1004.41 1004.65 1004.81 1005.01 1005.21 1005.41 1005.49 1005.53 1005.61 1005.69 1005.77 1005.85 1005.97 1006.13 1006.33 1006.53 1006.73 1006.93 1007.05 1007.13 1007.29 1007.41 1007.57 1007.69 1007.65 1007.97 1008.37 1008.45 1008.65 1008.93 1009.17 1009.41 1009.69 1010.09 1010.53 1010.93 1011.05 1011.13 1011.17 1011.21 1011.37 1011.49 1011.57 1011.73 1011.89 1011.97 1012.05 1012.17 1012.21 1012.29 1012.37 1012.45 1012.49
1001.09 1001.29 1001.49 1001.65 1001.81 1002.01 1002.17 1002.37 1002.57 1002.77 1002.93 1003.05 1003.21 1003.45 1003.65 1003.89 1004.09 1004.33 1004.53 1004.77 1004.97 1005.05 1005.13 1005.21 1005.29 1005.41 1005.53 1005.65 1005.81 1005.97 1006.09 1006.29 1006.49 1006.73 1006.93 1007.05 1007.17 1007.29 1007.45 1007.53 1007.61 1008.05 1008.57 1008.65 1008.77 1008.93 1009.09 1009.33 1009.65 1010.01 1010.37 1010.65 1010.77 1010.85 1010.97 1011.17 1011.33 1011.49 1011.65 1011.89 1012.13 1012.37 1012.49 1012.57 1012.65 1012.77 1012.81 1012.85 1012.85
1000.85 1001.01 1001.21 1001.45 1001.61 1001.77 1001.97 1002.17 1002.37 1002.53 1002.65 1002.77 1002.93 1003.13 1003.33 1003.57 1003.77 1003.93 1004.17 1004.41 1004.65 1004.73 1004.77 1004.85 1004.97 1005.09 1005.29 1005.49 1005.69 1005.85 1005.97 1006.13 1006.33 1006.53 1006.77 1006.93 1007.01 1007.13 1007.21 1007.37 1007.85 1008.41 1008.85 1009.01 1009.05 1009.05 1009.09 1009.33 1009.65 1009.93 1010.17 1010.37 1010.49 1010.69 1010.93 1011.17 1011.41 1011.65 1011.93 1012.29 1012.65 1012.85 1012.97 1013.05 1013.17 1013.29 1013.41 1013.49 1013.49
1000.65 1000.81 1001.01 1001.21 1001.37 1001.57 1001.73 1001.93 1002.09 1002.21 1002.37 1002.49 1002.69 1002.89 1003.05 1003.25 1003.45 1003.57 1003.73 1003.97 1004.17 1004.33 1004.45 1004.57 1004.69 1004.89 1005.05 1005.33 1005.57 1005.77 1005.97 1006.29 1006.69 1006.97 1007.09 1007.09 1007.29 1007.45 1007.57 1007.77 1008.37 1008.77 1009.09 1009.33 1009.45 1009.49 1009.49 1009.53 1009.69 1009.89 1010.05 1010.17 1010.37 1010.65 1010.89 1011.21 1011.49 1011.81 1012.21 1012.57 1012.85 1013.05 1013.21 1013.41 1013.57 1013.77 1013.93 1014.01 1013.93
1000.45 1000.65 1000.77 1000.93 1001.09 1001.25 1001.45 1001.61 1001.77 1001.93 1002.09 1002.33 1002.49 1002.65 1002.77 1002.93 1003.09 1003.21 1003.37 1003.61 1003.77 1003.93 1004.09 1004.25 1004.45 1004.65 1004.89 1005.17 1005.45 1005.77 1006.21 1006.85 1007.41 1007.77 1007.89 1007.93 1008.09 1008.29 1008.41 1008.45 1008.77 1009.05 1009.29 1009.57 1009.73 1009.81 1009.89 1009.93 1009.97 1010.05 1010.13 1010.17 1010.37 1010.65 1010.93 1011.21 1011.61 1012.01 1012.37 1012.73 1012.97 1013.21 1013.45 1013.65 1013.85 1014.05 1014.21 1014.37 1014.37
1000.21 1000.37 1000.53 1000.65 1000.77 1000.93 1001.13 1001.29 1001.45 1001.61 1001.81 1002.09 1002.29 1002.41 1002.53 1002.69 1002.81 1002.97 1003.17 1003.33 1003.49 1003.65 1003.85 1004.05 1004.21 1004.53 1005.01 1005.49 1005.81 1006.21 1006.77 1007.33 1007.89 1008.21 1008.37 1008.49 1008.65 1008.81 1008.93 1008.97 1009.13 1009.33 1009.53 1009.77 1009.93 1010.01 1010.05 1010.21 1010.33 1010.37 1010.37 1010.37 1010.49 1010.69 1010.97 1011.33 1011.73 1012.09 1012.49 1012.77 1013.05 1013.33 1013.57 1013.85 1014.05 1014.29 1014.49 1014.65 1014.77
Wind_Speed
12 11 10 9 8 8 8 8 8 8 8 8 9 9 9 9 9 9 8 8 8 8 8 8 8 9 10 13 13 14 14 14 14 14 14 14 13 13 13 12 12 12 12 12 11 11 10 11 9 8 6 6 7 8 8 7 8 9 9 10 9 9 10 12 12 12 13 13 10
13 12 11 9 9 8 8 8 8 8 8 8 8 9 9 9 9 9 9 9 8 8 8 8 9 10 12 13 14 14 14 14 15 14 14 14 14 14 14 13 12 12 12 12 12 10 9 10 9 8 6 6 7 7 8 8 8 9 10 11 9 8 8 10 11 12 12 12 11
13 13 12 11 10 10 9 8 9 9 10 9 8 8 8 8 8 8 8 9 9 9 9 8 9 11 12 14 13 13 14 14 15 14 14 14 14 14 14 13 13 13 13 12 12 10 9 10 9 8 7 6 7 8 8 9 9 9 10 12 9 8 7 7 9 9 9 9 10
14 14 13 13 13 13 11 9 10 11 11 9 9 9 8 8 8 8 8 9 10 10 9 9 9 10 12 13 13 14 14 14 15 15 14 14 14 15 15 14 14 14 13 12 12 12 11 10 8 7 7 8 9 9 8 8 9 9 9 9 8 7 7 7 7 7 7 7 8
15 14 13 13 14 14 13 11 12 12 11 9 9 8 8 8 8 8 8 9 9 9 10 10 10 10 11 12 14 14 15 15 14 14 14 14 14 15 15 15 15 14 14 13 13 12 12 11 8 7 8 9 9 9 9 9 10 9 8 7 7 7 7 7 6 6 6 6 7
15 15 14 13 14 14 13 12 13 12 11 10 10 10 9 8 8 9 9 9 9 10 11 11 11 10 11 12 13 14 14 14 14 14 14 15 14 14 15 16 16 15 14 13 14 13 12 12 8 7 8 8 9 9 10 11 10 9 8 7 7 7 7 7 6 5 5 6 6
15 16 15 15 15 14 13 13 13 12 12 11 12 12 12 11 10 11 11 10 9 10 10 10 10 11 11 12 13 13 14 13 14 14 15 14 14 15 15 16 16 16 15 14 14 14 13 12 9 8 8 8 8 9 11 11 10 9 9 9 7 7 7 8 6 5 6 7 7
16 16 16 16 16 16 15 15 14 13 12 11 12 14 14 14 13 13 12 11 10 10 9 9 11 12 12 12 13 13 14 14 14 14 15 14 15 16 16 17 17 17 17 16 15 14 13 11 9 9 9 8 8 9 11 13 12 11 11 10 9 8 8 8 7 7 7 9 9
15 16 17 16 16 16 16 16 15 14 13 13 13 14 15 14 14 14 13 11 10 10 10 10 12 13 14 13 13 13 14 14 15 15 15 15 16 16 16 16 17 17 17 16 16 16 15 12 10 9 9 9 9 10 11 13 13 13 12 11 9 9 9 8 9 9 10 10 11
16 16 17 16 17 17 16 16 16 16 15 15 15 15 15 14 14 13 12 10 10 11 11 11 12 13 14 14 14 14 14 13 14 15 15 16 16 17 17 16 17 17 17 16 16 16 16 13 11 11 11 11 11 12 13 14 14 14 13 9 10 11 12 11 11 11 11 11 12
17 17 17 16 17 17 17 17 16 16 16 15 16 16 15 14 14 14 12 11 12 13 13 13 13 14 14 14 14 14 14 13 13 14 15 16 17 17 17 16 17 17 17 16 15 14 14 13 13 14 14 13 13 13 14 14 15 15 14 11 11 13 14 14 13 12 12 13 14
18 18 17 17 17 18 17 17 15 15 16 16 17 16 16 15 15 15 14 14 14 14 14 14 14 14 14 13 14 14 14 14 15 15 16 17 17 18 18 18 18 18 17 17 15 14 13 14 15 16 16 16 13 12 13 15 15 15 14 13 14 14 15 15 15 13 13 14 15
19 18 18 18 18 18 18 17 15 15 16 17 17 16 16 15 16 16 16 17 16 15 14 14 15 15 14 14 14 14 14 15 16 16 16 16 17 17 18 18 18 18 18 17 16 14 14 15 16 17 17 17 14 13 13 15 15 15 15 15 15 15 16 17 17 16 15 15 14
20 19 19 18 19 18 18 17 15 15 16 17 17 16 16 16 16 16 16 17 17 16 15 14 14 14 14 15 14 15 15 15 16 16 17 16 16 17 18 17 18 18 17 16 16 16 17 16 17 18 18 18 16 15 14 14 15 16 16 17 17 17 18 18 18 17 16 16 14
21 21 20 19 19 18 17 17 15 15 16 17 17 16 16 15 15 16 16 17 17 16 15 15 14 14 15 16 16 16 16 16 16 17 17 17 17 17 17 17 18 18 17 16 16 17 18 18 18 17 17 17 17 16 16 16 16 17 17 18 18 18 18 17 17 16 16 15 14
22 22 21 21 20 19 18 17 15 14 15 16 17 16 16 15 15 15 16 17 17 16 15 16 15 15 15 16 16 16 16 16 17 17 18 18 18 18 18 18 18 18 18 18 17 17 17 17 16 16 17 17 17 17 17 18 18 18 18 18 18 18 17 17 17 16 16 15 14
22 22 22 21 21 20 19 17 15 15 15 17 17 17 16 15 14 15 16 17 16 16 16 17 16 15 15 15 16 16 16 16 17 17 17 18 18 19 19 19 18 19 19 19 18 18 18 17 16 16 16 17 17 17 18 18 17 18 18 18 17 17 17 16 16 16 15 14 14
23 23 22 22 22 22 21 20 18 17 17 18 18 17 17 16 15 15 16 17 17 17 18 18 17 16 16 16 16 15 15 16 17 17 18 18 19 19 19 19 19 18 19 19 19 19 19 18 17 17 16 17 17 17 17 17 17 17 17 17 17 17 17 16 16 15 14 13 13
23 23 23 23 23 23 22 22 21 20 19 19 18 18 18 18 17 17 17 17 18 18 19 19 18 17 17 18 17 16 15 16 18 19 19 19 19 19 19 19 19 18 19 19 19 19 19 19 18 18 17 17 16 16 16 16 16 16 17 17 17 17 17 16 15 14 14 13 13
23 23 23 23 23 23 23 22 22 21 20 19 19 19 19 19 19 19 18 18 18 19 19 19 18 18 18 19 19 18 17 16 18 19 20 19 19 20 19 19 19 19 19 19 19 19 19 19 19 19 18 18 17 17 16 16 16 16 16 16 16 16 16 16 15 15 14 13 13
24 23 23 23 23 23 23 22 22 22 21 20 20 20 20 20 20 20 20 19 19 19 19 20 20 19 19 20 20 20 18 16 17 18 19 19 19 19 19 19 18 18 18 18 18 19 19 19 19 19 18 18 18 17 17 16 16 16 16 15 15 15 16 15 15 15 14 14 13
23 23 23 23 23 23 22 22 22 21 21 21 21 21 21 20 20 20 20 19 19 19 19 20 20 20 20 20 20 20 19 16 17 17 17 17 17 18 18 17 17 17 18 18 18 18 18 18 18 18 18 17 18 17 17 16 15 15 15 15 15 15 15 15 14 14 14 14 13
22 22 22 21 22 22 22 22 21 21 21 21 21 21 21 20 20 20 20 19 19 19 19 18 18 19 20 20 20 19 19 17 17 17 16 16 16 16 16 16 17 17 18 17 17 17 17 17 18 18 17 17 17 17 16 15 14 14 14 14 14 14 14 13 13 13 13 13 13
22 21 20 18 20 21 21 21 21 21 22 22 22 21 21 21 20 20 20 20 19 19 19 17 17 17 18 19 19 19 19 18 18 18 18 17 17 16 16 15 16 16 16 14 14 14 15 14 15 16 16 16 15 15 14 13 13 12 12 12 12 12 12 12 13 14 14 14 13
22 21 20 18 19 20 21 21 21 22 22 22 22 22 21 21 20 20 19 20 20 20 19 18 17 17 16 17 17 18 18 18 19 19 19 18 17 16 16 14 14 13 12 11 12 13 13 12 12 13 14 14 13 12 11 11 10 10 10 9 9 10 11 13 14 14 14 14 13
22 22 21 21 21 21 21 22 22 22 22 22 22 22 22 21 20 20 20 20 20 19 19 19 18 16 15 15 16 17 17 17 18 19 19 19 18 17 16 14 13 12 11 11 12 13 14 13 11 11 11 11 11 9 7 6 6 7 8 9 10 11 12 14 14 14 13 12 13
21 22 22 22 22 22 22 22 22 22 22 22 22 22 22 21 19 19 20 20 19 19 18 17 17 16 15 14 16 18 18 17 18 19 20 20 19 18 17 15 13 12 11 12 13 15 15 14 12 10 8 8 8 7 6 5 7 9 11 12 13 13 14 14 13 13 12 12 13
21 21 22 22 22 23 23 22 22 22 22 22 22 22 21 21 20 20 20 19 18 18 17 16 15 14 12 13 16 18 20 19 18 18 19 20 20 20 18 16 14 13 12 13 15 16 17 16 14 12 9 7 6 6 7 9 10 12 13 14 14 14 14 13 11 10 11 12 13
22 22 22 22 23 23 23 23 23 23 23 23 22 21 21 20 20 20 19 18 18 17 15 13 12 11 12 14 17 19 20 21 19 18 18 19 20 20 19 18 17 15 13 14 16 18 18 17 16 14 11 9 7 7 8 10 11 12 13 13 13 12 11 10 9 9 10 11 12
22 22 22 22 23 23 23 23 23 23 22 21 21 20 20 20 20 20 19 19 19 17 15 13 12 13 15 17 18 18 19 19 18 18 18 20 20 20 20 19 18 15 13 15 18 19 20 19 17 15 13 12 9 9 10 11 11 12 11 11 10 10 10 9 10 10 10 10 11
22 22 22 23 23 23 23 23 23 23 22 20 20 20 20 20 20 20 19 19 18 17 16 15 16 17 18 18 18 18 18 18 18 18 18 19 20 20 20 19 20 16 13 17 19 20 20 19 17 16 15 14 11 10 10 11 12 12 11 10 10 10 10 9 10 11 11 12 11
22 22 23 23 23 23 23 23 23 22 21 21 21 21 21 21 20 19 18 17 18 18 18 18 19 19 20 19 18 18 18 18 18 17 17 18 19 19 19 18 19 16 13 17 19 20 19 19 17 17 16 16 13 12 13 14 15 14 13 12 11 11 10 9 9 10 12 12 12
22 23 23 23 24 23 23 23 22 22 21 21 21 21 21 20 19 18 18 17 17 18 19 19 20 20 20 19 18 18 17 17 17 17 17 16 17 17 17 16 16 13 11 17 19 19 19 19 18 18 18 18 15 15 16 17 15 14 12 12 11 11 11 11 10 11 12 13 13
22 23 23 23 23 23 23 22 22 21 21 21 21 21 20 20 19 19 18 17 16 17 17 18 19 19 19 18 16 15 14 13 14 15 16 15 15 14 14 13 12 9 8 16 18 19 20 20 20 20 20 19 15 14 16 17 15 13 12 11 11 11 11 12 13 13 14 14 13
22 22 23 23 23 22 22 22 21 21 20 21 21 21 20 19 19 19 18 17 16 16 17 17 18 18 17 16 14 13 13 12 13 14 14 14 13 13 13 13 12 8 7 15 17 18 19 20 20 20 19 17 13 13 14 16 14 13 12 11 11 11 11 11 11 11 11 12 12
22 22 22 22 22 22 21 21 20 20 20 20 20 20 20 19 19 18 17 16 16 17 17 18 17 17 16 16 14 13 13 13 13 13 14 14 14 14 14 14 13 9 7 12 15 17 18 19 19 19 18 15 12 11 12 12 11 11 11 11 9 8 7 6 4 4 4 5 8
22 22 22 21 21 21 20 20 20 20 20 20 20 19 19 19 18 17 16 15 16 17 18 18 17 16 16 15 14 13 13 13 13 13 14 14 14 14 14 15 10 5 5 8 12 14 16 18 18 18 17 13 11 11 11 9 7 7 7 6 2 1 3 3 4 4 5 5 4
21 21 21 20 20 20 19 19 19 20 20 19 19 18 18 18 17 17 16 15 16 17 17 17 16 16 15 15 14 13 12 10 9 9 10 11 11 12 12 11 4 3 4 2 4 9 13 16 18 17 16 12 11 10 9 7 5 4 3 3 5 6 6 6 7 8 9 11 11
19 19 19 20 20 19 19 19 19 19 19 19 18 18 18 17 16 16 15 15 16 16 17 16 16 15 14 14 12 11 8 3 2 3 2 1 1 2 2 1 5 6 6 6 4 1 6 12 15 16 14 11 10 8 6 5 5 4 5 5 5 6 6 6 6 7 9 12 15
18 18 19 19 19 19 19 19 19 18 17 17 17 18 17 17 16 15 15 14 15 16 16 15 15 14 12 10 9 7 7 10 10 10 10 10 10 10 9 8 8 8 7 9 8 5 1 5 10 12 12 8 7 6 5 5 5 6 6 5 5 5 6 6 6 7 8 11 14
16 17 18 18 18 18 18 19 19 17 16 16 17 16 16 15 15 15 14 13 14 14 13 13 12 9 6 5 6 9 11 12 12 11 11 11 11 11 10 10 9 9 8 9 9 7 3 1 5 7 7 5 5 5 5 5 6 7 7 6 5 5 6 6 7 7 8 9 10
Wind_Direction
192 190 188 188 192 196 198 197 196 195 194 193 193 193 194 197 197 195 193 193 196 198 199 201 199 198 197 196 195 195 196 198 199 201 203 203 204 205 205 205 205 204 203 205 205 204 205 207 208 209 210 210 212 213 213 214 214 216 218 219 221 223 224 226 228 228 228 229 230
195 192 188 186 190 196 199 199 198 197 196 196 196 195 196 198 200 199 197 196 197 199 200 202 202 201 199 198 198 198 198 199 200 201 203 205 206 205 204 204 205 204 204 204 204 204 204 205 206 208 209 209 211 212 213 214 213 216 218 219 221 222 224 226 228 229 230 230 230
198 195 191 188 190 195 199 201 200 198 198 198 198 198 198 199 203 204 202 199 199 200 201 203 204 203 202 200 200 200 200 200 200 201 203 205 206 206 205 204 205 205 204 204 203 203 202 202 204 207 210 210 210 211 212 213 213 214 217 218 219 219 220 224 226 228 228 229 228
201 199 196 192 193 196 200 203 202 201 199 199 201 201 201 200 204 206 207 205 203 202 202 204 206 206 204 202 202 202 202 202 201 202 203 205 206 206 206 206 205 205 205 203 204 204 203 200 202 206 211 214 214 214 212 210 210 212 215 216 217 216 217 220 221 221 222 224 223
202 202 200 197 196 198 201 205 205 204 202 200 201 203 204 203 204 207 209 209 206 204 204 205 207 207 206 205 204 204 204 204 203 203 203 204 205 206 207 207 206 206 205 203 204 204 203 201 203 207 212 215 216 216 214 210 209 210 211 212 214 215 215 216 217 217 217 219 219
202 203 203 201 199 200 203 206 207 207 206 204 204 205 206 205 205 206 208 211 210 208 206 206 208 209 209 207 205 205 205 204 204 204 205 205 206 206 207 209 209 208 206 204 203 203 202 202 205 209 212 215 218 219 217 212 209 208 208 209 211 213 215 215 213 211 211 215 217
202 203 204 203 202 202 203 206 208 209 209 209 208 207 207 207 206 207 208 211 210 209 207 206 208 210 210 208 206 204 204 203 204 205 207 208 206 206 207 209 210 210 209 206 203 202 202 203 207 210 211 212 217 217 216 212 209 207 207 208 207 208 211 213 209 206 206 210 212
203 204 205 205 203 203 204 205 207 208 209 211 210 209 209 210 209 208 207 209 210 209 208 207 208 210 211 210 207 205 204 204 204 205 207 209 209 209 209 210 211 212 211 208 204 202 201 203 208 211 211 211 213 214 213 211 209 208 208 209 207 205 205 209 206 202 200 202 204
204 205 206 206 205 205 205 205 206 208 210 212 213 211 210 211 211 210 208 208 210 210 209 209 209 209 211 213 211 209 206 204 204 205 206 209 210 211 211 212 212 212 211 210 207 204 203 204 209 212 213 212 213 212 211 209 209 209 209 210 207 204 203 206 204 201 197 195 194
204 204 205 207 207 206 206 206 207 209 211 214 214 213 211 210 212 212 211 210 210 211 212 212 210 210 211 212 213 212 209 206 205 205 206 208 210 211 212 212 212 212 211 209 208 207 206 207 210 213 215 215 217 216 213 209 209 209 209 208 206 205 204 205 204 200 196 192 191
206 205 205 206 206 207 207 207 208 209 211 213 214 214 213 211 212 213 214 213 213 213 214 214 213 212 211 211 213 213 212 210 207 206 206 208 210 211 212 212 212 211 210 209 207 206 207 209 212 214 216 217 219 220 217 212 209 207 207 206 205 205 205 204 202 201 199 195 194
208 208 207 207 206 207 208 208 209 209 211 213 214 214 214 212 212 213 214 216 217 217 216 216 215 214 213 212 211 212 213 212 210 209 208 209 210 211 212 212 212 211 210 208 206 206 208 210 213 215 216 218 218 218 217 213 208 206 206 207 206 206 206 206 206 206 206 204 203
210 210 210 208 207 207 208 208 210 211 211 212 214 214 214 213 212 212 214 216 217 218 218 217 217 216 216 214 212 211 212 213 212 211 211 210 210 210 211 212 211 211 210 209 207 207 208 211 213 214 216 216 216 216 214 212 208 207 207 208 209 210 212 214 213 212 211 211 212
212 213 212 211 209 208 208 209 210 211 212 213 214 214 214 214 213 213 213 215 217 218 219 218 217 217 217 216 214 213 212 213 213 214 213 212 211 210 210 211 211 210 210 209 208 209 210 212 212 213 215 216 216 215 213 212 211 211 211 211 212 215 218 220 219 216 214 214 216
212 213 214 213 211 210 210 209 210 212 212 214 214 214 214 214 213 213 213 215 216 218 219 219 218 218 218 218 217 215 214 214 215 215 215 215 213 212 211 211 210 210 210 209 209 210 212 213 213 214 214 215 215 215 216 216 216 216 216 215 216 217 219 221 221 219 216 214 213
211 213 214 214 213 212 211 210 211 212 212 214 213 214 214 214 214 213 213 215 216 217 218 219 220 219 218 217 217 217 216 215 216 217 217 217 216 214 213 212 211 211 210 210 209 210 212 213 214 214 215 215 216 217 218 217 217 218 219 219 219 220 220 220 220 218 216 212 209
211 212 213 214 214 213 213 212 212 212 212 214 213 213 214 214 214 213 213 214 215 216 217 219 219 219 218 216 216 215 216 216 217 218 219 219 218 216 215 214 212 211 211 211 211 211 211 212 214 215 217 218 219 219 219 217 217 218 219 221 221 221 221 220 219 218 216 211 208
212 212 213 213 214 214 214 214 214 214 214 214 214 214 214 214 214 214 214 213 215 217 218 219 219 219 219 217 215 214 214 216 217 218 220 221 220 219 217 215 213 212 211 212 212 212 212 211 213 215 218 220 221 221 220 219 219 219 220 221 222 222 222 221 220 218 214 209 207
213 213 213 213 214 214 215 215 215 216 216 215 215 215 214 214 215 215 215 214 215 216 218 219 219 219 219 219 217 216 215 216 218 219 220 221 222 222 220 217 214 212 212 213 214 214 213 212 212 214 217 220 221 221 220 220 220 221 221 222 223 223 223 222 220 218 214 207 205
214 214 213 214 214 214 215 216 216 217 217 217 216 216 216 215 215 216 216 216 215 216 217 219 219 219 219 219 219 218 217 217 219 220 221 222 223 223 223 220 216 213 213 214 215 215 215 214 213 214 215 218 219 220 220 220 222 222 223 223 224 225 225 223 221 219 215 208 202
215 214 214 214 214 215 216 216 217 218 219 219 219 218 218 217 216 216 217 217 216 216 217 218 219 220 220 219 219 219 219 219 219 221 222 223 223 224 224 223 219 216 214 214 215 216 216 216 215 215 216 217 218 219 220 220 222 223 224 225 226 227 227 225 223 221 217 210 201
216 216 215 215 215 216 216 217 218 219 220 221 221 220 220 219 218 218 218 218 218 218 218 218 219 220 221 221 221 221 221 221 221 222 223 224 224 224 224 224 221 219 217 215 215 215 215 216 217 218 218 218 218 219 219 220 223 224 226 228 229 229 229 228 226 223 218 211 203
217 217 217 217 217 217 218 219 219 220 221 222 222 222 222 221 221 220 219 218 219 219 219 219 220 221 222 223 223 223 223 224 223 223 224 224 225 225 224 223 223 221 219 217 215 213 213 215 217 219 220 220 220 219 219 220 223 226 228 230 231 232 233 234 230 224 217 209 203
218 218 218 219 218 219 219 220 220 221 222 223 223 223 223 223 223 222 221 219 220 220 220 220 220 221 223 225 226 226 226 227 227 226 226 225 225 224 224 223 223 222 221 218 214 211 210 212 215 218 219 220 220 219 218 218 222 226 229 233 236 238 241 241 236 228 218 208 204
217 217 218 219 219 219 220 220 221 221 222 223 223 223 223 223 223 223 223 222 221 221 221 222 222 221 222 224 226 227 228 229 230 230 229 227 225 223 222 221 221 221 220 217 211 206 203 205 209 214 217 218 217 216 216 215 219 225 232 238 242 244 244 242 237 229 220 210 206
215 216 217 218 219 219 220 220 221 222 222 222 223 223 223 223 223 224 224 224 223 222 222 223 223 222 222 222 224 226 228 229 231 232 231 230 226 222 219 219 219 220 218 214 205 200 197 196 200 207 212 213 210 206 202 202 213 225 234 240 240 239 237 236 232 225 218 212 211
215 215 216 216 217 218 220 220 221 222 222 222 222 223 223 223 223 223 224 225 225 224 223 223 224 223 223 224 225 225 226 227 229 230 232 232 229 224 220 219 220 220 218 210 198 192 189 188 188 190 194 198 193 188 188 202 221 229 233 233 231 229 226 225 222 218 214 214 216
215 215 215 215 217 218 219 220 221 222 222 222 222 222 223 223 223 223 223 223 224 224 224 224 223 223 223 225 226 226 226 226 226 228 229 231 230 227 224 222 221 219 215 202 189 183 181 179 176 175 176 182 190 203 218 230 231 230 229 229 226 222 217 213 211 210 212 216 219
215 215 215 216 217 218 218 219 220 221 222 222 222 222 222 222 222 222 221 221 222 222 222 221 220 220 221 224 226 227 227 226 225 225 226 228 229 229 227 225 225 220 208 187 177 174 173 172 172 174 179 188 202 217 229 236 238 237 234 230 223 216 208 204 205 208 213 219 222
215 216 216 217 218 218 219 219 220 220 221 221 222 221 221 221 221 220 219 219 219 219 218 218 218 220 222 225 226 227 227 226 224 223 223 225 226 227 227 227 227 220 201 173 169 169 170 171 175 181 189 198 211 224 233 238 243 243 240 232 219 209 202 202 208 213 217 221 224
215 216 217 218 219 220 220 221 221 220 220 220 220 220 220 220 219 218 217 218 218 218 219 219 222 225 226 227 228 228 228 227 225 223 222 222 224 225 226 227 230 222 197 167 167 168 171 173 180 188 195 199 207 220 231 238 242 241 237 227 214 205 202 205 211 216 220 223 225
215 216 217 218 219 220 221 221 221 221 220 220 219 219 219 219 218 217 217 217 219 220 221 222 226 228 230 231 231 230 230 228 226 223 221 220 222 224 225 226 231 223 196 166 168 170 174 178 186 193 198 199 206 217 228 236 238 236 232 224 214 207 203 203 210 216 220 223 225
215 216 217 218 220 220 221 221 221 221 221 220 220 220 219 219 219 218 218 218 221 222 223 225 228 231 232 233 233 233 232 231 229 227 224 222 223 224 225 225 230 222 194 168 171 174 178 183 190 196 199 199 206 217 226 231 233 231 226 221 215 210 206 205 206 210 215 218 221
216 217 218 219 220 221 221 221 221 220 220 220 220 220 220 220 220 220 219 219 220 222 225 228 230 233 234 234 233 233 232 232 232 232 230 228 225 225 224 225 227 219 188 171 175 178 181 185 191 196 198 198 204 215 223 227 227 225 221 217 214 211 209 208 207 209 211 214 217
218 218 219 220 221 222 222 221 221 220 220 220 220 220 220 220 221 221 221 220 220 223 227 230 232 235 236 234 232 229 228 229 230 231 232 230 228 225 224 226 227 219 187 173 177 180 182 186 190 192 193 193 202 213 219 221 222 220 218 216 216 217 217 215 214 213 214 216 219
219 220 220 221 222 223 223 223 222 222 221 220 220 220 220 220 221 222 222 222 222 224 226 229 230 232 233 233 229 225 223 222 224 226 228 229 228 227 226 228 228 218 183 171 175 178 181 185 187 187 186 187 198 209 214 215 216 216 217 218 220 223 226 228 230 235 239 239 235
221 221 221 222 223 224 224 224 224 224 223 222 221 220 220 220 220 220 220 220 223 225 226 227 227 227 227 227 226 224 222 220 221 222 224 225 227 228 228 230 228 206 154 163 170 174 178 181 181 180 180 185 196 204 207 208 208 212 215 216 207 79 53 49 40 32 22 6 334
222 222 223 224 224 225 225 225 225 225 225 224 223 222 221 221 221 220 219 218 221 224 226 227 225 223 222 222 224 224 223 222 225 228 229 228 230 233 234 229 205 115 96 101 164 175 178 178 176 175 176 184 192 196 196 195 189 179 157 117 85 69 60 56 52 47 42 36 29
223 224 224 225 225 225 225 225 225 225 226 226 225 224 223 222 222 221 219 218 221 223 225 226 223 221 220 218 218 213 202 163 70 29 359 298 323 299 284 136 86 76 60 31 10 236 192 181 174 172 174 180 184 184 179 172 157 137 118 104 98 86 74 67 63 58 53 47 45
224 224 225 226 226 226 226 225 225 225 225 225 226 226 225 224 224 223 222 221 222 223 224 224 222 221 219 213 202 174 130 90 69 57 51 50 49 46 47 65 68 64 50 32 18 1 285 196 178 174 173 174 172 167 159 151 139 131 124 118 111 99 87 77 72 68 62 57 53
224 224 225 226 226 227 227 227 226 224 223 224 225 226 227 226 226 225 224 224 223 222 222 222 217 206 178 134 119 108 99 89 77 69 65 61 57 53 50 54 56 53 46 35 25 19 12 200 183 179 175 167 160 153 145 142 139 137 134 129 118 108 99 90 82 76 71 66 63